EW2323 Weather Reports


time (UTC)temp
F
wind
direction
speed
knots
gust
knots
rain 1hr
in
rain 24hr
in
rain mn
in
humidity
%
barometer
mb
20240222100010 59 28 0.0 3.5 0.00 0.00 0.00 59 1008.4
20240222094509 59 342 0.9 5.2 0.00 0.00 0.00 58 1008.7
20240222093007 59 356 0.0 3.5 0.00 0.00 0.00 58 1008.8
20240222091502 59 329 0.0 3.5 0.00 0.00 0.00 56 1009.1
20240222090001 59 334 1.7 7.8 0.00 0.00 0.00 56 1009.4
20240222084559 59 295 1.7 7.0 0.00 0.00 0.00 55 1009.6
20240222083106 59 9 3.5 8.7 0.00 0.00 0.00 55 1009.8
20240222081554 59 13 0.0 3.5 0.00 0.00 0.00 54 1010.3
20240222080052 60 15 0.0 3.5 0.00 0.00 0.00 53 1010.5
20240222074550 60 24 0.0 4.3 0.00 0.00 0.00 52 1011.0
20240222073055 60 336 0.0 4.3 0.00 0.00 0.00 52 1011.3
20240222071547 60 17 0.9 5.2 0.00 0.00 0.00 52 1011.3
20240222070051 60 17 0.0 3.5 0.00 0.00 0.00 50 1011.4
20240222064551 60 329 1.7 7.0 0.00 0.00 0.00 50 1011.5
20240222063043 60 333 0.9 7.0 0.00 0.00 0.00 49 1011.7
20240222061540 60 314 0.0 6.1 0.00 0.00 0.00 49 1011.8
20240222060042 60 338 1.7 7.0 0.00 0.00 0.00 48 1011.9
20240222054601 60 346 0.9 7.8 0.00 0.00 0.00 47 1012.1
20240222053035 60 302 0.0 3.5 0.00 0.00 0.00 47 1012.2
20240222051540 61 311 0.9 4.3 0.00 0.00 0.00 47 1012.6
20240222050029 61 324 1.7 5.2 0.00 0.00 0.00 47 1012.9
20240222044531 61 326 1.7 4.3 0.00 0.00 0.00 47 1013.3
20240222043029 61 1 0.0 3.5 0.00 0.00 0.00 48 1013.4
20240222041525 61 351 0.9 3.5 0.00 0.00 0.00 48 1013.4
20240222040027 60 351 1.7 5.2 0.00 0.00 0.00 49 1013.4
20240222034523 59 25 0.0 4.3 0.00 0.00 0.00 50 1013.4
20240222033024 58 333 1.7 7.0 0.00 0.00 0.00 51 1013.5
20240222031522 58 351 0.0 1.7 0.00 0.00 0.00 52 1013.7
20240222030029 57 351 0.0 0.9 0.00 0.00 0.00 54 1013.9
20240222024519 56 351 0.0 2.6 0.00 0.00 0.00 55 1014.0
20240222023025 56 351 0.0 0.9 0.00 0.00 0.00 56 1014.2
20240222021525 56 351 0.0 0.0 0.00 0.00 0.00 57 1014.4
20240222020014 56 351 0.0 0.0 0.00 0.00 0.00 55 1014.6
20240222014516 56 351 0.0 0.0 0.00 0.00 0.00 55 1014.4
20240222013016 57 351 0.0 0.0 0.00 0.00 0.00 54 1014.5
20240222011516 57 351 0.0 0.0 0.00 0.00 0.00 53 1014.6
20240222010013 58 351 0.0 0.0 0.00 0.00 0.00 52 1014.4
20240222004513 58 351 0.0 0.0 0.00 0.00 0.00 51 1014.3
20240222003014 59 351 0.0 0.0 0.00 0.00 0.00 50 1014.4
20240222001513 60 351 0.0 0.9 0.00 0.00 0.00 49 1014.4
20240222000010 61 351 0.0 0.0 0.00 0.00 0.00 47 1014.5
20240221234517 62 351 0.0 0.9 0.00 0.00 0.00 46 1014.6
20240221233006 62 351 0.0 0.0 0.00 0.00 0.00 44 1014.8
20240221231507 63 351 0.0 0.9 0.00 0.00 0.00 43 1014.9
20240221230005 64 351 0.0 3.5 0.00 0.00 0.00 42 1014.9
20240221224503 64 320 0.0 7.0 0.00 0.00 0.00 41 1015.0
20240221223114 65 15 0.0 4.3 0.00 0.00 0.00 41 1015.4
20240221221557 66 307 0.9 8.7 0.00 0.00 0.00 40 1015.5
20240221220057 66 334 0.0 7.8 0.00 0.00 0.00 39 1015.6
20240221214556 67 334 0.9 7.8 0.00 0.00 0.00 38 1015.6
20240221213053 68 29 0.0 5.2 0.00 0.00 0.00 38 1015.7
20240221211559 68 317 0.0 4.3 0.00 0.00 0.00 38 1016.0
20240221210102 68 53 0.9 9.6 0.00 0.00 0.00 38 1016.2
20240221204547 68 325 1.7 9.6 0.00 0.00 0.00 37 1016.3
20240221203047 68 1 1.7 7.0 0.00 0.00 0.00 38 1016.7
20240221201544 68 32 1.7 9.6 0.00 0.00 0.00 38 1017.0
20240221200038 68 327 3.5 10.4 0.00 0.00 0.00 39 1017.4
20240221194536 68 45 0.0 5.2 0.00 0.00 0.00 40 1017.6
20240221193034 67 36 1.7 8.7 0.00 0.00 0.00 41 1018.0
20240221191530 67 1 2.6 8.7 0.00 0.00 0.00 41 1018.2
20240221190037 66 262 1.7 5.2 0.00 0.00 0.00 42 1018.5
20240221184525 65 28 2.6 7.0 0.00 0.00 0.00 42 1018.9
20240221183024 65 70 2.6 9.6 0.00 0.00 0.00 43 1019.4
20240221181519 65 21 2.6 8.7 0.00 0.00 0.00 42 1019.8
20240221180024 65 334 1.7 8.7 0.00 0.00 0.00 42 1020.1
20240221174536 64 24 0.9 4.3 0.00 0.00 0.00 42 1020.4
20240221173012 64 351 1.7 7.8 0.00 0.00 0.00 43 1020.8
20240221171515 63 345 1.7 4.3 0.00 0.00 0.00 43 1020.8
20240221170005 62 46 0.9 7.0 0.00 0.00 0.00 44 1021.1
20240221164503 62 5 0.0 5.2 0.00 0.00 0.00 43 1021.5
20240221163103 60 1 0.0 3.5 0.00 0.00 0.00 45 1021.9
20240221161555 59 1 0.0 5.2 0.00 0.00 0.00 46 1022.2
20240221160049 57 323 0.0 3.5 0.00 0.00 0.00 48 1022.6
20240221154545 55 1 0.0 2.6 0.00 0.00 0.00 50 1022.8
20240221153048 53 1 0.0 2.6 0.00 0.00 0.00 52 1022.8
20240221151545 50 1 0.0 0.9 0.00 0.00 0.00 54 1022.9
20240221150032 48 1 0.0 1.7 0.00 0.00 0.00 58 1022.9
20240221144533 45 1 0.0 1.7 0.00 0.00 0.00 63 1023.0
20240221143024 42 1 0.0 0.0 0.00 0.00 0.00 72 1023.4
20240221141525 39 1 0.0 0.0 0.00 0.00 0.00 73 1023.6
20240221140019 37 1 0.0 0.0 0.00 0.00 0.00 77 1023.6
20240221134518 34 1 0.0 0.0 0.00 0.00 0.00 81 1023.6
20240221133015 33 1 0.0 0.0 0.00 0.00 0.00 80 1023.3
20240221131529 33 1 0.0 0.0 0.00 0.00 0.00 79 1023.5
20240221130012 33 1 0.0 0.0 0.00 0.00 0.00 78 1023.5
20240221124509 33 1 0.0 0.0 0.00 0.00 0.00 77 1023.5
20240221123008 33 1 0.0 0.0 0.00 0.00 0.00 77 1023.4
20240221121507 34 1 0.0 0.0 0.00 0.00 0.00 77 1023.4
20240221120004 34 1 0.0 0.0 0.00 0.00 0.00 76 1023.3
20240221114502 34 1 0.0 0.0 0.00 0.00 0.00 73 1023.2
20240221113001 34 1 0.0 0.0 0.00 0.00 0.00 73 1023.4
20240221111603 35 1 0.0 0.0 0.00 0.00 0.00 72 1023.6
20240221110058 35 1 0.0 0.0 0.00 0.00 0.00 71 1023.2
20240221104610 35 1 0.0 0.0 0.00 0.00 0.00 69 1023.2
20240221103107 36 1 0.0 0.0 0.00 0.00 0.00 70 1022.9
20240221101555 36 1 0.0 0.0 0.00 0.00 0.00 70 1022.9